GREENECSD Weather Reports


time (UTC)temp
C
wind
direction
speed
KPH
gust
KPH
rain 1hr
cm
rain 24hr
cm
rain mn
cm
humidity
%
barometer
mb
20260505124524 16 262 3.2 11.3 0.00 0.00 0.00 68 1006.9
20260505123023 16 251 3.2 11.3 0.00 0.00 0.00 66 1006.8
20260505121512 16 199 3.2 9.7 0.00 0.00 0.00 66 1006.7
20260505120043 16 289 4.8 14.5 0.00 0.00 0.00 65 1006.8
20260505114522 16 203 9.7 19.3 0.00 0.00 0.00 60 1006.7
20260505113021 16 226 8.0 12.9 0.00 0.00 0.00 58 1006.8
20260505111507 16 215 4.8 12.9 0.00 0.00 0.00 58 1006.8
20260505101525 14 290 1.6 6.4 0.00 0.00 0.00 61 1006.2
20260505100019 15 231 3.2 8.0 0.00 0.00 0.00 61 1005.9
20260505094516 15 304 1.6 14.5 0.00 0.00 0.00 59 1005.8
20260505093020 16 188 4.8 11.3 0.00 0.00 0.00 58 1005.7
20260505091528 15 235 4.8 9.7 0.00 0.00 0.00 59 1005.6
20260505090038 15 234 3.2 8.0 0.00 0.00 0.00 59 1005.5
20260505084512 15 240 4.8 12.9 0.00 0.00 0.00 58 1005.5
20260505083018 15 234 1.6 4.8 0.00 0.00 0.00 57 1005.5
20260505081522 15 202 3.2 4.8 0.00 0.00 0.00 56 1005.6
20260505080035 16 219 1.6 8.0 0.00 0.00 0.00 55 1005.5
20260505074524 16 193 1.6 8.0 0.00 0.00 0.00 55 1005.7
20260505073028 15 255 4.8 8.0 0.00 0.00 0.00 55 1005.7
20260505071520 15 216 6.4 12.9 0.00 0.00 0.00 54 1005.7
20260505070024 15 217 4.8 9.7 0.00 0.00 0.00 54 1005.7
20260505064538 15 220 6.4 11.3 0.00 0.00 0.00 54 1005.8
20260505063026 15 226 4.8 11.3 0.00 0.00 0.00 53 1005.7
20260505061530 15 200 4.8 12.9 0.00 0.00 0.00 53 1005.7
20260505060023 15 233 3.2 9.7 0.00 0.00 0.00 53 1005.7
20260505054542 15 268 1.6 8.0 0.00 0.00 0.00 53 1005.8
20260505053031 16 249 3.2 14.5 0.00 0.00 0.00 51 1005.8
20260505051517 16 155 4.8 11.3 0.00 0.00 0.00 51 1006.0
20260505041526 16 158 1.6 6.4 0.00 0.00 0.00 49 1005.8
20260505040020 17 253 3.2 11.3 0.00 0.00 0.00 48 1005.8
20260505034523 17 224 4.8 14.5 0.00 0.00 0.00 47 1005.8
20260505033025 17 231 3.2 14.5 0.00 0.00 0.00 46 1005.7
20260505031540 17 210 4.8 20.9 0.00 0.00 0.00 46 1005.7
20260505030028 17 193 8.0 17.7 0.00 0.00 0.00 45 1005.8
20260505024534 17 212 6.4 12.9 0.00 0.00 0.00 45 1005.9
20260505023028 17 274 3.2 19.3 0.00 0.00 0.00 44 1006.0
20260505021528 18 214 8.0 19.3 0.00 0.00 0.00 43 1005.9
20260505020032 18 224 6.4 11.3 0.00 0.00 0.00 42 1005.9
20260505014531 18 206 8.0 12.9 0.00 0.00 0.00 41 1005.9
20260505013024 18 241 6.4 17.7 0.00 0.00 0.00 41 1005.8
20260505011532 18 184 9.7 19.3 0.00 0.00 0.00 41 1005.8
20260505010028 18 190 3.2 11.3 0.00 0.00 0.00 40 1005.6
20260505004537 19 158 6.4 12.9 0.00 0.00 0.00 39 1005.5
20260505003023 19 210 8.0 16.1 0.00 0.00 0.00 38 1005.3
20260505001527 20 199 4.8 20.9 0.00 0.00 0.00 38 1005.3
20260505000042 20 212 4.8 16.1 0.00 0.00 0.00 36 1005.2
20260504234515 20 232 4.8 9.7 0.00 0.00 0.00 35 1005.0
20260504233022 21 202 6.4 16.1 0.00 0.00 0.00 35 1004.9
20260504231523 21 182 6.4 16.1 0.00 0.00 0.00 35 1004.9
20260504230027 21 205 9.7 19.3 0.00 0.00 0.00 34 1004.9
20260504224528 21 188 16.1 29.0 0.00 0.00 0.00 33 1004.7
20260504223020 21 195 6.4 20.9 0.00 0.00 0.00 33 1004.7
20260504221521 21 210 6.4 19.3 0.00 0.00 0.00 34 1004.7
20260504220028 22 221 11.3 24.1 0.00 0.00 0.00 32 1004.7
20260504214526 22 170 9.7 25.7 0.00 0.00 0.00 33 1004.8
20260504213026 22 186 14.5 24.1 0.00 0.00 0.00 31 1004.8
20260504211520 22 285 9.7 22.5 0.00 0.00 0.00 32 1004.8
20260504210028 21 233 9.7 27.4 0.00 0.00 0.00 33 1004.9
20260504204527 21 243 14.5 25.7 0.00 0.00 0.00 33 1005.0
20260504203028 21 176 8.0 24.1 0.00 0.00 0.00 33 1005.2
20260504201521 21 224 11.3 22.5 0.00 0.00 0.00 35 1005.4
20260504200026 21 233 9.7 32.2 0.00 0.00 0.00 34 1005.7
20260504194526 21 233 9.7 27.4 0.00 0.00 0.00 36 1005.8
20260504193027 21 238 8.0 24.1 0.00 0.00 0.00 36 1006.0
20260504191528 21 231 11.3 24.1 0.00 0.00 0.00 34 1006.1
20260504190024 21 210 14.5 27.4 0.00 0.00 0.00 35 1006.2
20260504184524 20 315 6.4 20.9 0.00 0.00 0.00 39 1006.3
20260504183028 20 201 16.1 29.0 0.00 0.00 0.00 37 1006.3
20260504181532 20 212 12.9 22.5 0.00 0.00 0.00 38 1006.5
20260504180026 20 222 11.3 30.6 0.00 0.00 0.00 37 1006.7
20260504174525 19 245 14.5 30.6 0.00 0.00 0.00 38 1006.8
20260504173010 19 250 12.9 32.2 0.00 0.00 0.00 39 1006.9
20260504171512 18 187 9.7 32.2 0.00 0.00 0.00 40 1007.0